Temp_Advection
nan nan nan nan nan nan nan nan nan nan nan nan nan nan nan nan nan nan nan nan nan nan nan nan nan nan nan nan nan nan nan nan nan nan nan nan nan nan nan nan nan nan nan nan nan nan nan
nan -0 -0 -0 -0 -0 -0 0 -0 -0 -0 0 -0 0 0 0 0 0 0 0 0 0 0 0 0 0 -0 -0 0 0 0 0 0 -0 -0 -0 -0 -0 -0 -0 -0 -0 -0 -0 -0 -0 nan
nan -0 -0 -0 -0 -0 0 -0 -0 0 0 0 0 0 0 0 0 0 0 0 0 0 0 0 0 0 -0 -0 0 0 0 0 0 0 0 0 -0 -0 -0 -0 0 0 -1 -1 -0 0 nan
nan -0 -0 0 -0 -0 -0 -0 -0 -0 -0 -0 -0 -0 -0 -0 -0 -0 0 0 0 0 0 0 0 -0 -0 -0 0 0 0 0 -0 0 0 0 -0 -0 -0 -0 -0 -0 -0 -0 0 0 nan
nan -0 0 0 -0 -0 -0 -0 -0 -0 -0 -0 -0 -0 -0 -0 -0 -0 -0 0 0 0 0 0 0 -0 -0 0 0 0 0 0 0 -0 0 0 -0 -0 -0 -1 -0 -0 -0 -0 -0 -0 nan
nan 0 -0 -0 -0 -0 -0 -0 -0 -0 -0 -0 -0 -0 -0 -0 -0 -0 -0 -0 -0 -0 0 0 0 -0 -0 0 0 0 0 0 0 0 -0 -0 -0 -1 -1 -0 -0 0 -0 -0 0 0 nan
nan -0 -0 -0 -0 -0 -0 -0 -0 -0 -0 -0 -0 -0 -0 -0 -0 -0 -0 -1 -0 -0 -1 -0 0 0 0 0 0 0 0 0 -0 -1 -0 -0 -0 -1 -0 0 -0 -0 -0 -1 0 -0 nan
nan -0 -0 -0 -0 -0 -0 -0 -0 -0 -0 -0 -0 -0 -0 -0 -0 -0 -0 -0 -0 -0 -0 -0 1 0 -0 -0 0 -0 -0 -0 -0 -0 -0 -0 -1 -0 -0 0 -0 -0 -0 -0 -0 -0 nan
nan 0 0 -0 -0 -0 -0 -0 -0 -0 -0 -0 -0 -0 -0 -0 -0 -0 -1 -0 0 -0 -0 -0 0 -0 -0 -0 -0 0 0 -0 -0 -0 -0 -1 -0 0 -0 -0 -0 -0 0 0 -0 -0 nan
nan 0 0 -0 -0 -0 -0 -0 -0 -0 -0 -0 -0 -0 -0 -0 -0 -0 -0 -0 0 -0 -0 -0 -0 -0 0 -0 0 0 0 -0 -0 -0 -0 -0 0 0 -0 -0 -0 0 -0 -0 -0 -0 nan
nan -0 -0 -0 -1 -1 -1 -1 -1 -1 -0 -0 -0 -0 -0 -0 -0 -0 -0 -0 0 0 -1 -0 -0 -0 -0 -0 0 0 0 -0 -1 0 -0 -0 0 0 -0 -0 0 0 0 1 0 -0 nan
nan -0 -0 -0 -1 -1 -1 -1 -1 -1 -1 -1 -0 -0 -0 -0 -0 -0 -0 -0 0 -0 -1 -0 -0 -0 -0 -0 -0 -0 -0 -0 -0 -0 -0 1 -0 -0 -0 0 0 -0 -0 0 0 0 nan
nan -1 -1 -1 -1 -1 -1 -1 -1 -1 -1 -1 -0 -0 -0 0 0 -0 -0 -0 -0 -0 -0 0 0 -0 -0 -0 -0 -0 -0 -0 -0 -0 -1 0 0 -0 0 -0 -0 -0 -0 -0 -0 -0 nan
nan -1 -1 -1 -1 -1 -1 -1 -0 -0 -0 -0 -0 -0 -0 -0 0 0 -0 -0 -0 -1 -0 -0 0 -0 -0 0 0 -0 -0 -0 -1 0 0 -0 0 0 -0 -0 0 0 -0 0 -0 -0 nan
nan -1 -1 -1 -1 -1 -1 -1 -0 -0 -0 -0 -0 -0 -0 -0 -0 0 -0 -0 -0 -0 -1 -0 -0 -0 -0 0 0 -0 -0 -1 0 0 -0 -0 0 -0 0 0 0 0 0 -0 -0 0 nan
nan -0 -0 -1 -1 -1 -1 -1 -1 -0 -0 -0 -0 -0 -0 -0 0 0 -0 -0 -0 -1 -1 -0 -1 -0 -0 0 0 -0 -0 -0 0 0 0 -0 0 -0 -0 0 -0 -0 0 0 0 -0 nan
nan -0 -0 -1 -1 -1 -1 -1 -1 -1 -0 -0 -0 -0 0 0 0 -0 -0 0 -0 -0 -0 -0 -1 -1 -1 -0 -0 -0 0 -0 -0 0 -0 -0 0 0 -0 -0 0 -0 -0 -0 -0 -0 nan
nan -0 -0 -0 -0 -0 -0 -1 -1 -1 -1 -1 -0 0 -0 0 -0 -0 0 -0 -0 -0 -0 -0 -0 -0 -0 -0 -1 -1 -0 0 -1 -0 -0 -0 0 -0 -0 -0 -0 -0 -0 0 0 0 nan
nan -0 -0 -0 -0 -0 -1 -1 -1 -1 -1 -1 -0 -0 0 0 -0 0 -0 0 -0 -0 -0 -0 -0 -0 -0 -0 -0 -0 0 -1 -0 -0 -0 -0 0 -0 0 0 -0 -0 0 0 0 0 nan
nan -0 -0 -0 -0 -0 -1 -1 -1 -1 -0 -0 -0 -0 -0 -0 -0 -0 -0 -0 -0 -0 0 -0 -0 -0 -1 -1 -0 -0 -0 -0 0 -0 -0 -0 -0 -0 -0 -0 0 0 0 0 0 0 nan
nan -0 -0 -0 -0 -0 -0 -0 -1 -1 -1 -0 -0 -0 -0 -0 -0 -0 -0 -0 -0 -0 0 -0 0 -0 -0 -0 -1 0 -0 -1 -0 -0 -0 -0 -0 -1 -0 -0 -0 -0 -0 -0 -0 0 nan
nan -0 -0 -0 -0 -0 -0 -0 -1 -1 -1 -0 -0 -0 -0 -0 -0 -0 -0 0 0 -0 -0 -0 0 -0 -0 -0 -0 -0 -1 -1 -1 -0 -0 0 -0 -0 -0 -1 0 -0 -1 -0 -0 -0 nan
nan -0 -0 -0 -0 -0 -1 -1 -1 -1 -1 -0 -0 -0 -0 -0 -0 -0 -0 -0 -0 -0 -0 0 -0 -0 -1 -0 -0 -0 -0 -1 -1 -1 -1 -0 -0 -0 -1 -1 -0 -0 -1 0 0 -0 nan
nan 0 0 -0 -0 -0 -0 -0 -0 -0 -0 -0 -0 -0 -1 -0 -0 -0 0 0 -0 -0 0 -0 -0 -0 0 -0 -1 -1 -1 -1 -1 -1 -0 -0 -0 0 -0 -0 -1 -2 0 0 -0 -0 nan
nan -0 0 0 0 0 0 0 0 0 -0 -0 -0 -0 -0 -1 -0 -0 -0 0 -0 0 -0 -0 -0 0 -0 -0 -1 -1 -0 -0 -0 -0 0 0 0 -0 -0 -0 -1 -1 -0 1 -0 -0 nan
nan -0 -0 -0 -0 0 -0 -0 -0 0 0 -0 -0 -0 -0 -1 -0 -0 -0 -0 -0 -0 -0 0 0 0 -0 -0 -0 -0 -1 -0 0 -0 -0 0 1 0 0 0 -1 0 -0 -0 -0 -0 nan
nan -0 -0 -0 -0 -0 -0 -0 -0 -0 0 0 0 0 0 -1 -1 -0 -0 -0 -0 -0 -0 -0 -0 0 -0 -0 -0 -0 -1 0 0 -0 0 -0 0 -0 -0 -1 -0 -1 -1 -0 0 -0 nan
nan -0 -0 -0 -0 -0 -0 -0 -0 -0 -0 0 0 0 0 -0 -1 -0 -0 -1 -0 -0 -0 -0 -0 -0 0 -0 -0 -0 -0 -0 -0 -1 -0 -0 0 0 0 0 -0 -0 -1 -1 -1 -1 nan
nan nan nan nan nan nan nan nan nan nan nan nan nan nan nan nan nan nan nan nan nan nan nan nan nan nan nan nan nan nan nan nan nan nan nan nan nan nan nan nan nan nan nan nan nan nan nan
Wind_Speed
8 8 9 10 11 11 11 12 13 13 14 15 15 16 16 16 16 14 13 13 12 11 9 8 8 8 7 5 6 6 5 6 7 8 6 5 4 6 4 5 7 9 7 11 14 18 20
10 10 10 10 11 10 11 11 12 13 14 15 15 16 17 17 18 17 14 15 14 13 12 9 7 7 5 8 7 6 5 6 7 6 4 4 3 5 4 6 5 7 15 22 16 10 13
10 10 9 9 10 10 10 10 11 11 12 13 14 15 15 17 18 18 16 17 17 17 13 9 7 6 8 10 8 7 6 7 8 5 3 3 2 4 5 5 4 10 12 13 6 4 7
8 8 8 8 8 8 8 10 11 12 12 13 14 15 16 17 17 16 15 18 20 16 10 8 6 5 6 9 8 9 8 8 8 6 5 5 4 3 3 6 4 5 4 10 2 2 1
8 7 7 8 9 10 10 11 12 12 13 14 15 15 16 17 17 15 16 17 17 13 9 5 5 3 5 5 5 8 6 4 6 4 4 2 1 3 3 6 8 5 11 13 10 5 3
7 8 9 9 10 10 11 12 12 13 14 14 15 15 16 16 17 15 17 18 13 9 3 5 6 4 6 1 5 5 7 7 4 3 3 3 3 6 6 5 6 11 14 13 13 6 10
8 9 9 9 10 11 12 12 13 14 15 15 16 16 16 17 17 14 15 12 9 5 13 8 5 5 3 6 7 6 4 2 4 5 4 3 5 8 2 3 7 11 12 14 16 8 7
7 8 9 10 11 12 13 14 15 16 17 17 17 17 16 16 16 11 14 5 7 8 12 13 15 16 16 9 3 6 6 4 4 7 2 5 8 3 2 4 7 10 13 14 8 1 9
12 13 15 16 18 18 18 18 19 20 20 20 20 19 17 16 13 9 12 10 11 12 7 3 5 3 3 10 5 7 8 3 6 8 8 9 6 2 4 6 9 12 12 13 12 17 6
16 17 17 17 18 19 19 20 20 21 21 21 20 20 19 16 9 12 7 12 12 11 4 4 3 1 3 3 5 6 8 4 4 5 5 10 1 5 6 11 6 11 4 9 15 9 5
16 15 15 16 17 18 19 20 21 22 21 19 20 20 17 14 12 7 10 11 10 4 5 2 4 4 4 5 1 4 7 3 9 5 3 3 4 7 8 7 5 6 9 12 10 8 5
16 15 15 16 17 18 19 19 19 20 21 19 17 18 16 13 11 10 7 8 6 3 7 3 4 5 4 8 5 3 4 5 4 6 11 17 1 5 3 3 7 9 10 13 7 5 4
13 13 14 14 15 16 17 17 18 18 20 19 16 15 14 10 5 5 5 3 3 4 2 5 5 6 7 7 6 8 6 7 6 2 6 5 8 4 5 5 5 7 8 4 3 4 7
9 11 14 14 15 17 19 20 20 20 21 20 15 11 11 9 8 6 2 4 7 7 12 5 3 3 6 3 7 6 5 7 13 12 8 5 6 9 10 4 3 2 3 3 5 8 13
10 13 15 17 18 19 19 19 19 19 20 19 14 7 5 6 1 7 5 5 4 4 6 7 6 8 13 6 5 5 9 11 9 13 8 4 7 4 2 1 2 4 5 3 5 3 4
12 14 16 17 19 21 23 24 24 21 22 19 11 4 8 5 3 8 5 4 5 6 9 7 8 10 15 12 4 5 7 0 2 4 2 2 8 2 4 2 2 4 2 3 3 4 8
12 14 16 18 20 22 24 26 27 24 21 18 6 1 9 4 5 4 4 5 4 5 9 5 10 15 17 17 15 15 10 1 4 1 4 5 5 3 4 7 6 4 4 5 4 3 5
11 13 16 19 21 21 22 24 26 28 23 16 5 2 8 2 3 2 4 4 6 6 6 5 5 9 11 13 15 16 15 9 8 3 3 1 6 11 16 2 2 4 7 8 7 6 6
11 12 13 15 18 21 22 22 24 24 23 18 6 3 6 3 3 3 3 6 5 6 6 5 5 5 5 5 6 6 5 5 7 3 4 2 5 8 7 4 3 5 6 9 8 5 11
10 12 14 16 18 20 22 23 21 22 18 10 5 3 4 5 3 3 5 5 3 4 5 5 6 7 8 11 11 9 8 2 9 4 6 2 8 13 13 14 7 7 5 7 9 9 13
9 9 12 14 16 19 22 24 24 21 18 7 8 3 4 4 2 9 6 5 8 6 2 3 3 5 5 5 10 10 4 9 5 4 1 3 10 12 15 14 15 16 18 17 18 19 17
10 10 10 13 16 18 18 20 23 22 19 13 6 6 7 9 8 7 2 1 7 7 4 6 6 8 10 8 11 14 13 10 10 4 4 2 9 10 16 14 15 18 18 20 22 22 23
8 10 11 13 15 17 17 18 18 20 19 8 8 6 5 5 5 6 3 3 4 8 9 8 7 13 14 12 13 19 21 22 21 16 13 9 6 6 17 11 13 16 21 23 22 19 16
9 11 12 13 13 14 15 16 15 15 15 11 6 6 6 6 4 6 8 11 14 14 13 18 19 15 8 17 23 24 28 31 31 26 27 15 13 8 10 9 14 11 5 4 7 11 10
9 10 11 12 13 13 13 14 13 14 13 11 9 4 4 7 11 15 15 7 15 15 13 14 18 11 15 17 9 9 7 9 13 23 22 18 14 8 7 9 16 19 13 14 6 8 16
9 11 12 13 12 11 12 13 13 13 13 11 10 9 7 7 2 9 14 17 10 11 13 12 8 11 9 6 6 7 5 6 4 2 2 10 16 11 7 13 6 7 8 9 4 6 14
10 11 13 14 14 13 14 14 14 13 14 13 11 10 8 10 16 12 9 9 12 15 8 18 9 9 4 4 8 9 12 11 6 7 2 4 4 15 13 12 8 11 12 6 5 5 19
12 13 14 15 15 15 15 14 15 15 14 15 15 14 12 11 22 23 22 25 18 17 10 8 6 7 6 5 5 5 4 5 5 8 7 5 3 6 10 10 16 22 8 8 9 16 21
11 11 15 15 16 14 15 15 15 16 15 18 19 14 15 16 23 31 34 30 33 29 27 10 11 16 5 4 4 7 10 11 15 13 11 7 3 5 5 5 23 22 16 18 24 27 26
Wind_Direction
56 45 39 33 30 29 27 22 20 18 16 15 12 8 4 360 358 351 347 343 335 331 319 302 289 286 311 281 261 266 295 325 339 346 357 0 352 334 310 305 302 243 280 296 290 289 284
52 46 42 36 34 30 25 20 17 15 13 10 8 6 2 357 351 348 341 340 334 326 319 306 293 286 296 264 255 258 285 313 327 336 334 354 329 318 283 286 278 324 294 291 289 281 288
57 51 45 40 34 27 21 15 12 10 6 4 2 0 0 357 354 347 339 335 330 321 311 302 292 286 276 260 258 248 280 300 308 305 309 301 293 304 320 277 300 292 302 288 243 258 288
61 51 40 31 21 14 7 2 359 358 357 355 354 353 353 353 352 349 343 335 328 321 312 298 290 290 261 261 257 243 274 292 300 295 289 289 302 280 245 306 253 275 271 326 324 194 226
47 35 24 12 9 3 358 354 351 350 348 347 347 346 346 347 346 344 342 340 330 323 314 299 289 268 267 273 247 245 254 263 274 294 301 289 252 268 240 282 266 205 315 321 327 192 295
36 20 13 6 359 352 348 345 344 343 342 341 339 339 338 340 341 340 341 339 332 326 324 321 258 266 236 232 231 250 263 265 243 254 265 219 237 257 219 270 319 310 313 312 316 296 302
8 2 360 355 347 340 337 336 337 333 332 333 333 333 333 334 339 337 346 351 344 316 313 245 268 267 227 229 271 272 236 247 250 240 260 180 258 244 343 298 294 298 296 298 315 355 315
8 358 347 339 332 326 325 327 325 324 325 326 327 327 329 330 332 334 346 18 351 311 305 275 252 249 245 248 261 221 221 218 220 263 236 226 253 72 75 274 269 283 291 297 319 52 302
351 342 335 331 326 326 324 323 321 319 319 321 322 319 321 326 328 326 342 348 342 337 272 244 227 239 241 221 237 202 188 206 249 267 237 257 324 164 267 270 267 275 293 312 309 318 252
338 332 330 328 324 324 323 322 321 318 318 318 314 311 316 320 321 330 324 334 338 341 282 179 193 168 191 204 252 206 197 224 231 273 284 265 123 216 252 269 259 292 26 308 309 318 320
337 336 335 335 336 333 332 329 327 324 321 318 313 308 308 308 299 314 304 323 333 1 320 126 159 186 192 220 9 198 213 227 254 247 225 277 220 230 250 273 183 283 327 303 301 279 307
340 345 347 347 344 342 339 335 334 329 324 323 316 309 308 302 294 285 296 321 334 257 243 192 162 188 196 201 207 161 190 228 287 280 239 262 139 256 250 212 234 301 290 272 260 262 251
352 358 359 0 356 350 346 344 343 336 329 329 320 310 306 298 244 259 295 329 254 232 267 191 218 196 219 202 201 197 194 206 232 253 243 189 218 204 219 243 202 243 284 307 282 240 290
10 7 15 11 3 360 358 355 352 346 339 340 333 315 304 293 273 256 232 238 243 263 271 58 343 252 250 231 220 202 232 254 228 250 285 271 266 192 175 244 323 287 290 267 295 313 308
22 16 20 19 15 10 4 358 357 352 344 343 345 340 343 326 288 180 182 223 252 279 353 327 289 259 264 227 273 222 233 250 274 195 230 258 242 128 204 183 255 145 224 31 275 241 272
29 24 22 19 16 12 8 2 358 359 354 348 356 55 1 4 159 150 223 248 260 356 344 311 281 281 283 285 228 222 270 40 233 244 207 326 283 152 107 185 217 263 100 225 194 274 288
26 20 16 15 13 12 10 5 360 358 1 355 31 52 1 32 132 183 220 240 298 330 351 310 304 289 285 285 291 278 271 360 353 120 241 304 238 204 168 209 254 169 212 228 294 256 278
23 19 11 6 2 2 7 6 4 360 3 10 41 283 357 97 236 257 266 346 331 315 331 293 284 286 280 293 288 273 273 292 5 329 255 316 300 267 268 87 335 291 265 245 239 219 237
15 7 356 354 351 351 356 2 4 7 6 4 354 324 3 46 284 247 307 281 284 319 332 323 300 356 328 290 299 291 306 29 10 305 344 45 241 283 254 192 170 232 227 241 266 287 257
341 340 343 349 353 353 354 353 358 5 7 15 345 314 2 43 56 336 340 291 293 317 272 333 313 305 322 280 266 273 283 44 337 352 348 298 259 255 270 295 334 275 214 225 255 263 262
359 3 3 1 355 355 357 0 3 5 17 46 13 19 350 320 125 322 290 279 297 293 286 326 197 35 348 287 307 265 345 326 274 354 257 277 264 270 278 286 289 281 277 274 263 253 253
11 4 350 348 347 347 353 357 0 8 15 44 27 356 332 293 303 289 201 155 291 306 282 277 295 326 308 272 275 287 308 301 279 304 308 218 275 279 274 269 261 273 270 263 259 260 264
339 339 337 337 338 341 344 347 353 359 18 41 21 353 316 284 299 285 311 338 309 319 277 267 301 310 294 309 313 290 278 269 267 275 282 280 273 278 269 286 307 278 257 250 255 258 265
332 334 340 349 353 351 352 351 351 356 3 20 6 351 315 293 296 301 295 295 290 281 272 287 294 289 307 316 306 288 263 256 252 249 240 245 249 248 278 288 264 266 281 280 296 312 284
348 350 347 346 345 345 356 0 3 6 355 345 336 338 308 286 305 292 289 272 301 280 267 274 289 291 308 306 294 292 261 231 245 241 234 229 236 257 241 227 270 295 282 272 187 45 18
2 1 360 356 345 342 336 339 343 344 343 338 319 314 284 301 298 346 293 300 290 300 301 266 280 301 306 274 255 259 265 327 288 152 164 226 219 223 229 235 252 82 30 13 143 122 13
331 330 326 326 326 323 323 327 329 329 328 318 305 301 281 278 283 300 264 278 301 296 282 278 287 308 250 262 269 268 269 260 270 291 308 128 191 219 229 247 263 13 343 321 257 35 4
310 311 312 312 312 313 312 314 315 318 316 314 299 295 283 276 286 279 271 272 266 280 267 275 299 219 263 256 267 296 313 13 311 337 322 298 294 201 221 234 242 21 19 7 354 340 344
320 312 314 326 323 312 310 312 310 310 313 308 297 294 288 277 267 284 281 266 259 263 275 262 249 276 289 285 304 319 295 307 301 282 292 289 319 318 303 310 322 325 349 329 321 311 313
Height
1555 1555 1555 1553 1552 1551 1549 1548 1546 1544 1542 1539 1537 1535 1532 1530 1527 1525 1522 1520 1518 1516 1514 1513 1513 1513 1513 1513 1511 1508 1508 1507 1506 1506 1506 1505 1505 1503 1499 1499 1499 1497 1491 1490 1488 1487 1485
1557 1556 1555 1554 1553 1552 1550 1548 1546 1544 1542 1540 1538 1535 1532 1530 1527 1524 1521 1519 1517 1515 1513 1512 1512 1512 1512 1513 1508 1507 1507 1507 1506 1506 1506 1506 1505 1504 1502 1500 1499 1495 1493 1488 1485 1483 1482
1558 1557 1556 1554 1553 1552 1550 1548 1546 1544 1542 1539 1537 1535 1532 1529 1526 1523 1521 1518 1516 1513 1511 1510 1510 1510 1510 1509 1505 1506 1506 1505 1505 1505 1505 1504 1503 1504 1502 1496 1497 1495 1491 1481 1476 1480 1480
1558 1558 1557 1555 1554 1552 1550 1548 1546 1544 1542 1540 1537 1534 1532 1529 1525 1522 1519 1517 1513 1511 1509 1509 1509 1509 1508 1505 1504 1504 1505 1504 1503 1503 1503 1502 1501 1502 1501 1498 1494 1492 1487 1475 1468 1475 1477
1559 1558 1557 1555 1554 1552 1551 1549 1547 1545 1542 1540 1537 1534 1531 1528 1525 1521 1518 1514 1511 1509 1507 1507 1508 1509 1506 1503 1503 1503 1504 1504 1503 1502 1501 1501 1501 1500 1499 1493 1481 1486 1479 1474 1472 1474 1478
1560 1559 1558 1556 1554 1552 1550 1548 1546 1544 1542 1539 1536 1534 1531 1528 1525 1521 1518 1514 1510 1507 1506 1505 1505 1510 1504 1503 1501 1501 1502 1502 1503 1502 1502 1501 1500 1494 1490 1485 1487 1485 1480 1472 1473 1468 1468
1561 1560 1558 1556 1554 1552 1549 1547 1545 1542 1540 1538 1535 1532 1530 1527 1524 1521 1518 1514 1514 1510 1505 1504 1503 1501 1500 1499 1500 1499 1500 1501 1501 1502 1496 1498 1495 1483 1479 1485 1486 1486 1483 1476 1463 1466 1473
1561 1559 1557 1555 1552 1550 1548 1546 1543 1541 1538 1536 1533 1530 1528 1526 1523 1521 1519 1518 1518 1518 1506 1498 1496 1497 1497 1497 1498 1497 1498 1500 1499 1494 1494 1495 1484 1479 1486 1487 1488 1484 1479 1469 1462 1469 1470
1561 1559 1557 1554 1551 1549 1547 1544 1542 1539 1536 1534 1531 1529 1526 1524 1521 1520 1518 1518 1515 1513 1510 1496 1494 1495 1496 1497 1496 1495 1496 1496 1494 1490 1488 1487 1478 1485 1486 1482 1481 1472 1468 1467 1475 1466 1461
1560 1557 1555 1553 1550 1547 1544 1541 1538 1535 1533 1531 1528 1525 1524 1523 1523 1519 1518 1516 1514 1513 1506 1491 1494 1494 1494 1495 1495 1493 1493 1496 1492 1488 1485 1482 1480 1482 1482 1479 1477 1475 1470 1472 1471 1468 1463
1558 1555 1552 1549 1547 1544 1541 1538 1536 1532 1529 1527 1524 1522 1521 1519 1520 1519 1519 1515 1513 1513 1516 1490 1491 1491 1493 1495 1493 1492 1493 1494 1488 1483 1489 1475 1478 1479 1479 1471 1475 1469 1470 1470 1470 1466 1465
1556 1553 1551 1549 1546 1543 1540 1537 1534 1530 1526 1524 1521 1518 1517 1517 1517 1517 1516 1515 1515 1515 1511 1485 1488 1488 1490 1490 1489 1490 1492 1494 1491 1488 1482 1476 1481 1480 1471 1473 1474 1472 1468 1459 1463 1461 1468
1555 1553 1550 1548 1545 1541 1538 1535 1531 1527 1523 1521 1518 1515 1514 1514 1516 1515 1515 1516 1516 1513 1485 1481 1481 1484 1481 1479 1483 1485 1485 1486 1484 1493 1475 1470 1472 1473 1475 1472 1472 1471 1461 1468 1463 1459 1455
1554 1551 1549 1547 1543 1540 1536 1533 1530 1525 1521 1517 1514 1512 1511 1510 1511 1514 1516 1517 1515 1492 1483 1483 1485 1485 1483 1473 1476 1479 1478 1476 1470 1477 1478 1474 1471 1467 1468 1465 1465 1467 1466 1469 1473 1460 1453
1554 1552 1549 1547 1544 1540 1536 1532 1529 1524 1519 1515 1512 1510 1510 1509 1509 1510 1516 1515 1500 1491 1493 1489 1484 1481 1476 1478 1481 1477 1472 1466 1461 1469 1471 1465 1461 1466 1468 1468 1469 1469 1470 1467 1466 1459 1471
1554 1552 1550 1547 1544 1541 1536 1532 1527 1524 1519 1515 1511 1511 1512 1510 1509 1511 1513 1506 1499 1501 1501 1494 1488 1477 1476 1470 1480 1478 1467 1461 1466 1469 1469 1461 1464 1460 1469 1471 1471 1469 1468 1469 1467 1472 1456
1555 1553 1551 1548 1545 1542 1537 1532 1528 1523 1518 1514 1511 1514 1513 1512 1512 1512 1508 1503 1504 1503 1502 1499 1490 1485 1479 1478 1475 1472 1468 1468 1471 1471 1473 1468 1465 1461 1467 1466 1456 1471 1465 1467 1464 1459 1456
1555 1554 1553 1549 1547 1543 1538 1534 1529 1524 1518 1515 1513 1515 1514 1512 1514 1512 1505 1509 1509 1503 1502 1499 1495 1491 1485 1481 1480 1474 1471 1468 1476 1474 1470 1467 1463 1461 1454 1456 1461 1459 1455 1453 1460 1455 1453
1556 1555 1554 1550 1547 1543 1539 1536 1531 1526 1521 1517 1519 1517 1514 1513 1507 1506 1509 1509 1508 1505 1504 1501 1498 1498 1491 1487 1485 1472 1473 1480 1479 1476 1471 1472 1465 1464 1452 1460 1462 1461 1456 1457 1452 1455 1452
1556 1555 1553 1550 1547 1544 1540 1536 1533 1529 1524 1522 1522 1519 1516 1516 1517 1515 1514 1506 1507 1506 1506 1506 1503 1499 1497 1489 1485 1478 1476 1480 1481 1478 1478 1477 1466 1461 1458 1450 1455 1458 1457 1457 1457 1456 1448
1556 1554 1553 1550 1548 1545 1541 1537 1533 1529 1526 1524 1526 1527 1527 1517 1514 1519 1516 1510 1507 1505 1506 1504 1500 1503 1503 1495 1486 1482 1482 1484 1479 1479 1476 1476 1467 1463 1458 1460 1460 1458 1455 1455 1454 1447 1451
1556 1555 1553 1551 1548 1545 1542 1539 1536 1532 1528 1528 1531 1531 1529 1525 1522 1518 1512 1508 1510 1510 1509 1502 1502 1504 1504 1500 1495 1491 1491 1492 1482 1478 1476 1475 1467 1463 1461 1460 1457 1453 1450 1448 1443 1440 1438
1555 1554 1553 1550 1548 1546 1543 1540 1537 1535 1532 1531 1533 1533 1533 1523 1520 1519 1511 1512 1512 1515 1509 1506 1507 1506 1501 1498 1499 1496 1494 1491 1487 1484 1482 1476 1470 1466 1453 1454 1453 1447 1439 1435 1432 1432 1435
1554 1553 1552 1549 1547 1545 1544 1541 1540 1536 1536 1534 1535 1534 1532 1521 1521 1518 1519 1516 1515 1514 1511 1509 1508 1504 1501 1500 1494 1487 1482 1478 1476 1473 1477 1471 1470 1470 1462 1463 1462 1430 1428 1431 1432 1433 1431
1554 1552 1551 1549 1547 1546 1543 1542 1541 1538 1536 1535 1534 1534 1532 1526 1521 1521 1518 1516 1514 1511 1509 1506 1505 1503 1502 1499 1489 1474 1461 1461 1455 1455 1460 1466 1473 1469 1460 1448 1433 1428 1423 1424 1431 1434 1435
1554 1552 1550 1549 1548 1546 1544 1542 1540 1538 1537 1535 1534 1531 1531 1528 1516 1518 1518 1518 1514 1508 1504 1502 1504 1502 1501 1496 1487 1478 1463 1447 1448 1450 1458 1460 1463 1466 1454 1456 1441 1421 1426 1425 1424 1437 1444
1552 1551 1551 1549 1547 1546 1543 1540 1539 1537 1537 1535 1532 1529 1529 1525 1520 1518 1517 1515 1514 1511 1508 1503 1501 1500 1498 1489 1482 1474 1464 1458 1461 1452 1448 1460 1466 1462 1461 1452 1431 1434 1432 1431 1428 1449 1448
1551 1550 1548 1547 1545 1543 1541 1538 1536 1535 1533 1533 1531 1528 1525 1521 1517 1516 1515 1513 1511 1511 1507 1502 1502 1494 1494 1490 1481 1473 1471 1473 1470 1463 1463 1457 1453 1448 1452 1450 1448 1443 1435 1444 1456 1452 1451
1549 1548 1547 1545 1542 1539 1538 1535 1533 1531 1530 1527 1526 1524 1522 1518 1512 1510 1505 1505 1504 1504 1505 1501 1498 1495 1494 1489 1484 1482 1480 1477 1474 1473 1466 1468 1460 1463 1464 1439 1439 1448 1452 1454 1453 1451 1450